contact:dominique.lefevre@mio.osupytheas.fr, maurice.libes@osupytheas.fr, didier.mallarino@osupytheas.fr
Project:EMSO http://www.emso-fr.org/EMSO-France
Depth: 2436.0 m
Title:EMSO Ligure Ouest : Data MII capteur AQUADOPP
Date,Latitude,Longitude,X_East,Y_North,Z_Up,Amplitude_X,Amplitude_Y,Amplitude_Z,Batterie,SoundSpeed,Heading,Pitch,Roll,Pressure,TIS,Speed,Direction
, degrees North, degrees East, m.s-1, m.s-1,m.s-1, 1, 1, 1, Volt, m.s-1, degree, degree, degree, dbar, degree_C, m.s-1, degree
2019-08-15T00:01:43,42.805,6.029,-0.061,-0.004,-0.095,103.0,107.0,100.0,13.4,1505.3,323.4,-0.7,1.8,2470.048,13.33,0.061,266.3
2019-08-15T00:04:44,42.805,6.029,-0.026,-0.006,-0.03,103.0,107.0,99.0,13.4,1505.3,326.5,-0.7,1.8,2470.029,13.33,0.026,257.0
2019-08-15T00:07:45,42.805,6.029,-0.031,0.0,-0.046,102.0,107.0,100.0,13.4,1505.3,327.9,-0.7,1.8,2470.048,13.33,0.03,270.0
2019-08-15T00:10:46,42.805,6.029,-0.01,0.027,-0.008,102.0,108.0,99.0,13.4,1505.3,324.4,-0.7,1.9,2470.067,13.33,0.028,339.7
2019-08-15T00:13:47,42.805,6.029,-0.028,-0.005,-0.063,104.0,107.0,100.0,13.4,1505.3,323.6,-0.7,1.8,2470.021,13.33,0.028,259.9
2019-08-15T00:16:48,42.805,6.029,0.0,-0.013,0.011,103.0,105.0,100.0,13.4,1505.3,326.0,-0.7,1.8,2470.01,13.33,0.013,180.0
2019-08-15T00:19:49,42.805,6.029,-0.037,0.002,-0.046,103.0,109.0,99.0,13.3,1505.3,324.6,-0.7,1.8,2470.048,13.33,0.037,273.1
2019-08-15T00:22:50,42.805,6.029,-0.022,0.003,-0.002,106.0,109.0,102.0,13.4,1505.3,327.7,-0.7,1.8,2470.048,13.33,0.022,277.8
2019-08-15T00:25:51,42.805,6.029,-0.006,-0.01,-0.036,103.0,107.0,100.0,13.4,1505.3,326.5,-0.7,1.8,2470.052,13.33,0.011,211.0
2019-08-15T00:28:52,42.805,6.029,0.01,-0.002,-0.022,103.0,108.0,100.0,13.3,1505.3,328.4,-0.7,1.8,2470.033,13.33,0.01,101.3
2019-08-15T00:31:53,42.805,6.029,-0.035,0.014,0.012,103.0,106.0,101.0,13.4,1505.3,325.0,-0.7,1.8,2470.039,13.33,0.037,291.8
2019-08-15T00:34:54,42.805,6.029,-0.006,0.002,-0.006,102.0,105.0,100.0,13.4,1505.3,325.7,-0.7,1.8,2470.039,13.33,0.006,288.4
2019-08-15T00:37:55,42.805,6.029,-0.014,-0.015,-0.027,103.0,105.0,100.0,13.3,1505.3,328.4,-0.7,1.8,2470.005,13.33,0.02,223.0
2019-08-15T00:40:56,42.805,6.029,-0.012,-0.009,-0.032,103.0,106.0,100.0,13.4,1505.3,323.5,-0.7,1.9,2470.033,13.33,0.015,233.1
2019-08-15T00:43:57,42.805,6.029,-0.031,0.005,-0.028,103.0,106.0,100.0,13.4,1505.3,323.6,-0.7,1.8,2470.031,13.33,0.031,279.2
2019-08-15T00:46:58,42.805,6.029,-0.024,0.006,-0.037,102.0,105.0,99.0,13.4,1505.3,327.8,-0.7,1.8,2469.993,13.33,0.024,284.0
2019-08-15T00:49:59,42.805,6.029,-0.024,-0.004,-0.036,104.0,105.0,99.0,13.3,1505.3,327.1,-0.7,1.8,2470.015,13.33,0.024,260.5
2019-08-15T00:53:00,42.805,6.029,-0.018,-0.015,-0.049,103.0,104.0,99.0,13.3,1505.3,328.6,-0.7,1.8,2469.983,13.33,0.023,230.2
2019-08-15T00:56:01,42.805,6.029,-0.039,-0.02,-0.04,103.0,104.0,100.0,13.4,1505.3,327.3,-0.7,1.8,2470.014,13.33,0.043,242.9
2019-08-15T00:59:02,42.805,6.029,-0.021,-0.024,-0.015,103.0,103.0,99.0,13.4,1505.3,325.6,-0.8,1.8,2470.014,13.33,0.031,221.2
2019-08-15T01:02:03,42.805,6.029,-0.028,0.0,-0.016,103.0,106.0,100.0,13.4,1505.3,327.0,-0.7,1.8,2469.968,13.33,0.028,270.0
2019-08-15T01:05:04,42.805,6.029,-0.024,0.005,-0.034,103.0,105.0,100.0,13.4,1505.3,324.1,-0.7,1.8,2470.009,13.33,0.024,281.8
2019-08-15T01:08:05,42.805,6.029,-0.02,-0.003,-0.015,103.0,103.0,99.0,13.4,1505.3,324.4,-0.7,1.8,2469.989,13.33,0.02,261.5
2019-08-15T01:11:06,42.805,6.029,0.009,0.003,-0.036,104.0,103.0,99.0,13.3,1505.3,325.5,-0.7,1.8,2470.029,13.33,0.009,71.6
2019-08-15T01:14:07,42.805,6.029,-0.022,-0.002,-0.02,104.0,105.0,98.0,13.3,1505.3,324.9,-0.7,1.9,2469.987,13.33,0.022,264.8
2019-08-15T01:17:08,42.805,6.029,-0.018,-0.012,-0.031,101.0,106.0,100.0,13.3,1505.3,324.3,-0.7,1.8,2470.013,13.33,0.021,236.3
2019-08-15T01:20:09,42.805,6.029,-0.029,-0.011,-0.015,103.0,105.0,99.0,13.3,1505.3,327.2,-0.7,1.9,2470.015,13.33,0.031,249.2
2019-08-15T01:23:10,42.805,6.029,-0.029,0.005,-0.027,103.0,103.0,99.0,13.3,1505.3,327.7,-0.7,1.8,2469.995,13.33,0.029,279.8
2019-08-15T01:26:11,42.805,6.029,-0.029,0.012,-0.038,103.0,103.0,99.0,13.4,1505.3,322.7,-0.7,1.9,2469.982,13.33,0.031,292.5
2019-08-15T01:29:12,42.805,6.029,-0.01,0.005,-0.052,103.0,104.0,99.0,13.4,1505.3,328.3,-0.7,1.9,2470.001,13.33,0.011,296.6
2019-08-15T01:32:13,42.805,6.029,-0.02,-0.012,-0.045,102.0,105.0,99.0,13.3,1505.3,326.8,-0.7,1.9,2470.001,13.33,0.023,239.0
2019-08-15T01:35:14,42.805,6.029,-0.023,0.014,-0.056,103.0,104.0,98.0,13.3,1505.3,323.7,-0.7,1.8,2470.019,13.33,0.026,301.3
2019-08-15T01:38:15,42.805,6.029,-0.017,-0.006,-0.028,103.0,104.0,100.0,13.4,1505.3,327.0,-0.7,1.8,2470.0,13.33,0.018,250.6
2019-08-15T01:41:16,42.805,6.029,-0.012,-0.012,-0.021,101.0,105.0,100.0,13.3,1505.3,324.1,-0.7,1.8,2470.014,13.33,0.016,225.0
2019-08-15T01:44:17,42.805,6.029,-0.002,0.007,-0.038,103.0,105.0,98.0,13.4,1505.3,324.7,-0.7,1.9,2470.004,13.33,0.007,344.1
2019-08-15T01:47:18,42.805,6.029,0.002,-0.008,0.0,104.0,106.0,100.0,13.3,1505.3,324.2,-0.7,1.8,2469.972,13.33,0.008,166.0
2019-08-15T01:50:19,42.805,6.029,-0.026,0.001,-0.066,104.0,106.0,100.0,13.4,1505.3,323.4,-0.7,1.8,2470.041,13.33,0.026,272.2
2019-08-15T01:53:20,42.805,6.029,-0.021,0.008,-0.033,103.0,105.0,99.0,13.3,1505.3,327.7,-0.7,1.9,2470.011,13.33,0.022,290.9
2019-08-15T01:56:21,42.805,6.029,0.001,0.006,-0.036,104.0,106.0,98.0,13.4,1505.3,324.0,-0.7,1.8,2470.019,13.33,0.006,9.5
2019-08-15T01:59:22,42.805,6.029,0.003,-0.009,-0.044,102.0,106.0,100.0,13.4,1505.3,326.5,-0.7,1.8,2469.998,13.33,0.009,161.6
2019-08-15T02:02:23,42.805,6.029,0.005,0.026,0.021,103.0,105.0,101.0,13.4,1505.3,327.4,-0.7,1.8,2469.979,13.33,0.026,10.9
2019-08-15T02:05:24,42.805,6.029,-0.032,-0.002,-0.024,102.0,106.0,99.0,13.3,1505.3,325.3,-0.7,1.8,2469.991,13.33,0.032,266.4
2019-08-15T02:08:25,42.805,6.029,0.006,0.003,0.033,104.0,106.0,98.0,13.4,1505.3,327.7,-0.7,1.8,2469.99,13.33,0.006,63.4
2019-08-15T02:11:26,42.805,6.029,-0.028,0.016,-0.013,103.0,107.0,99.0,13.3,1505.3,323.7,-0.7,1.8,2470.016,13.33,0.032,299.7
2019-08-15T02:14:27,42.805,6.029,-0.005,0.0,0.007,103.0,106.0,99.0,13.4,1505.3,326.5,-0.7,1.8,2469.997,13.33,0.005,270.0
2019-08-15T02:17:28,42.805,6.029,-0.013,-0.001,-0.04,104.0,106.0,99.0,13.4,1505.3,325.4,-0.7,1.8,2469.994,13.33,0.013,265.6
2019-08-15T02:20:29,42.805,6.029,-0.026,0.014,-0.035,102.0,106.0,99.0,13.4,1505.3,324.4,-0.7,1.8,2470.022,13.33,0.029,298.3
2019-08-15T02:23:30,42.805,6.029,-0.007,0.008,-0.027,103.0,106.0,99.0,13.3,1505.3,327.7,-0.7,1.8,2469.973,13.33,0.01,318.8
2019-08-15T02:26:31,42.805,6.029,-0.03,0.0,0.0,103.0,106.0,99.0,13.3,1505.3,327.2,-0.7,1.8,2470.01,13.33,0.03,270.0
2019-08-15T02:29:32,42.805,6.029,0.002,0.007,-0.013,102.0,107.0,99.0,13.3,1505.3,326.2,-0.7,1.8,2470.03,13.33,0.007,15.9
2019-08-15T02:32:33,42.805,6.029,-0.025,0.003,-0.039,103.0,105.0,101.0,13.4,1505.3,327.2,-0.7,1.9,2470.032,13.33,0.025,276.8
2019-08-15T02:35:34,42.805,6.029,-0.02,-0.004,-0.011,103.0,105.0,99.0,13.4,1505.3,322.9,-0.7,1.8,2469.962,13.33,0.02,258.7
2019-08-15T02:38:35,42.805,6.029,-0.024,-0.01,-0.025,103.0,106.0,100.0,13.3,1505.3,328.4,-0.7,1.8,2469.997,13.33,0.026,247.4
2019-08-15T02:41:36,42.805,6.029,-0.046,-0.007,-0.062,103.0,105.0,100.0,13.4,1505.3,326.3,-0.7,1.8,2469.987,13.33,0.046,261.3
2019-08-15T02:44:37,42.805,6.029,-0.013,-0.003,-0.065,103.0,106.0,100.0,13.4,1505.3,325.3,-0.7,1.9,2469.975,13.33,0.013,257.0
2019-08-15T02:47:38,42.805,6.029,-0.016,-0.004,-0.018,102.0,106.0,101.0,13.4,1505.3,327.8,-0.7,1.8,2469.981,13.33,0.016,256.0
2019-08-15T02:50:39,42.805,6.029,0.009,-0.01,0.012,105.0,106.0,99.0,13.3,1505.3,325.3,-0.7,1.8,2469.988,13.33,0.013,138.0
2019-08-15T02:53:40,42.805,6.029,-0.027,-0.007,-0.017,103.0,108.0,100.0,13.4,1505.3,325.6,-0.7,1.8,2470.022,13.33,0.027,255.5
2019-08-15T02:56:41,42.805,6.029,-0.006,0.003,0.002,103.0,107.0,100.0,13.4,1505.3,326.9,-0.7,1.8,2469.971,13.33,0.006,296.6
2019-08-15T02:59:42,42.805,6.029,-0.027,0.003,-0.057,104.0,106.0,99.0,13.4,1505.3,323.7,-0.7,1.8,2469.996,13.33,0.027,276.3
2019-08-15T03:02:43,42.805,6.029,-0.029,-0.008,-0.045,103.0,106.0,99.0,13.4,1505.3,327.3,-0.7,1.8,2470.013,13.33,0.03,254.6
2019-08-15T03:05:44,42.805,6.029,-0.033,-0.024,-0.075,102.0,105.0,100.0,13.4,1505.3,324.4,-0.7,1.8,2469.982,13.33,0.04,234.0
2019-08-15T03:08:45,42.805,6.029,-0.016,-0.019,-0.024,104.0,107.0,98.0,13.4,1505.3,326.0,-0.7,1.9,2470.028,13.33,0.024,220.1
2019-08-15T03:11:46,42.805,6.029,0.02,-0.01,-0.008,103.0,106.0,99.0,13.3,1505.3,325.3,-0.7,1.9,2470.01,13.33,0.022,116.6
2019-08-15T03:14:47,42.805,6.029,0.004,0.001,0.02,103.0,106.0,99.0,13.4,1505.3,326.7,-0.7,1.8,2469.965,13.33,0.004,76.0
2019-08-15T03:17:48,42.805,6.029,0.03,-0.004,0.007,103.0,106.0,99.0,13.4,1505.3,324.9,-0.7,1.9,2469.978,13.33,0.03,97.6
2019-08-15T03:20:49,42.805,6.029,-0.029,-0.002,-0.029,104.0,105.0,99.0,13.4,1505.3,326.1,-0.7,1.8,2470.038,13.33,0.029,266.1
2019-08-15T03:23:50,42.805,6.029,0.006,-0.012,0.018,103.0,105.0,99.0,13.3,1505.3,326.5,-0.7,1.8,2470.017,13.33,0.013,153.4
2019-08-15T03:26:51,42.805,6.029,0.028,-0.018,-0.007,102.0,106.0,100.0,13.4,1505.3,326.9,-0.7,1.9,2470.036,13.33,0.033,122.7
2019-08-15T03:29:52,42.805,6.029,-0.015,-0.006,-0.036,104.0,107.0,99.0,13.4,1505.3,325.8,-0.8,1.9,2470.018,13.33,0.016,248.2
2019-08-15T03:32:53,42.805,6.029,-0.03,-0.008,-0.032,102.0,106.0,99.0,13.4,1505.3,328.2,-0.7,1.8,2470.005,13.33,0.031,255.1
2019-08-15T03:35:54,42.805,6.029,-0.01,-0.009,-0.002,103.0,107.0,99.0,13.4,1505.3,327.5,-0.7,1.8,2470.013,13.33,0.013,228.0
2019-08-15T03:38:55,42.805,6.029,0.009,-0.012,0.002,102.0,107.0,100.0,13.4,1505.3,323.2,-0.7,1.8,2470.024,13.33,0.015,143.1
2019-08-15T03:41:56,42.805,6.029,-0.01,-0.01,-0.026,102.0,105.0,101.0,13.4,1505.3,324.7,-0.7,1.8,2470.006,13.33,0.014,225.0
2019-08-15T03:44:57,42.805,6.029,0.015,-0.005,-0.001,103.0,106.0,98.0,13.4,1505.3,324.3,-0.7,1.9,2469.994,13.33,0.015,108.4
2019-08-15T03:47:58,42.805,6.029,-0.003,-0.039,-0.053,102.0,106.0,98.0,13.4,1505.3,323.9,-0.7,1.8,2470.05,13.33,0.039,184.4
2019-08-15T03:50:59,42.805,6.029,0.001,-0.023,-0.037,102.0,108.0,97.0,13.4,1505.3,328.4,-0.7,1.8,2470.064,13.33,0.023,177.5
2019-08-15T03:54:00,42.805,6.029,0.028,-0.003,0.027,100.0,105.0,100.0,13.4,1505.3,326.6,-0.7,1.8,2470.023,13.33,0.028,96.1
2019-08-15T03:57:01,42.805,6.029,-0.006,-0.018,-0.042,104.0,106.0,100.0,13.4,1505.3,327.6,-0.7,1.8,2469.994,13.33,0.018,198.4
2019-08-15T04:00:02,42.805,6.029,0.005,0.0,0.0,102.0,108.0,100.0,13.4,1505.3,325.8,-0.7,1.8,2470.07,13.33,0.005,90.0
2019-08-15T04:03:03,42.805,6.029,-0.018,-0.011,-0.035,103.0,106.0,99.0,13.4,1505.3,327.8,-0.7,1.8,2470.049,13.33,0.021,238.6
2019-08-15T04:06:04,42.805,6.029,0.022,-0.007,0.009,103.0,105.0,99.0,13.4,1505.3,324.7,-0.7,1.8,2470.021,13.33,0.023,107.6
2019-08-15T04:09:05,42.805,6.029,0.016,0.001,0.01,104.0,105.0,99.0,13.4,1505.3,324.1,-0.7,1.8,2470.016,13.33,0.016,86.4
2019-08-15T04:12:06,42.805,6.029,0.025,-0.016,-0.022,103.0,106.0,100.0,13.4,1505.3,325.8,-0.7,1.9,2470.059,13.33,0.029,122.6
2019-08-15T04:15:07,42.805,6.029,0.03,0.005,0.014,102.0,105.0,100.0,13.3,1505.3,327.3,-0.8,1.8,2470.052,13.33,0.03,80.5
2019-08-15T04:18:08,42.805,6.029,0.015,0.007,0.022,102.0,105.0,100.0,13.4,1505.3,326.7,-0.7,1.8,2470.035,13.33,0.016,65.0
2019-08-15T04:21:09,42.805,6.029,-0.001,0.021,0.0,102.0,106.0,98.0,13.4,1505.3,324.9,-0.7,1.9,2470.069,13.33,0.021,357.3
2019-08-15T04:24:10,42.805,6.029,0.046,-0.012,0.051,101.0,106.0,100.0,13.4,1505.3,327.5,-0.7,1.9,2470.037,13.33,0.047,104.6
2019-08-15T04:27:11,42.805,6.029,0.036,-0.019,-0.006,101.0,106.0,99.0,13.4,1505.3,323.7,-0.8,1.9,2470.081,13.33,0.04,117.8
2019-08-15T04:30:12,42.805,6.029,0.006,-0.002,0.02,102.0,104.0,99.0,13.4,1505.3,326.0,-0.7,1.8,2470.042,13.33,0.006,108.4
2019-08-15T04:33:13,42.805,6.029,0.011,0.0,0.021,102.0,104.0,99.0,13.4,1505.4,327.8,-0.7,1.8,2470.03,13.34,0.011,90.0
2019-08-15T04:36:14,42.805,6.029,-0.013,-0.008,0.001,102.0,104.0,100.0,13.4,1505.4,326.3,-0.7,1.8,2470.039,13.34,0.015,238.4
2019-08-15T04:39:15,42.805,6.029,-0.037,-0.041,-0.029,102.0,104.0,98.0,13.4,1505.4,325.7,-0.7,1.8,2470.069,13.34,0.055,222.1
2019-08-15T04:42:16,42.805,6.029,0.017,-0.006,0.004,102.0,104.0,98.0,13.4,1505.4,326.6,-0.7,1.8,2470.06,13.34,0.018,109.4
2019-08-15T04:45:17,42.805,6.029,0.005,-0.005,-0.002,103.0,104.0,99.0,13.4,1505.4,324.8,-0.7,1.8,2470.063,13.34,0.007,135.0
2019-08-15T04:48:18,42.805,6.029,-0.014,-0.002,-0.022,101.0,106.0,100.0,13.4,1505.4,327.3,-0.7,1.8,2470.087,13.34,0.014,261.9
2019-08-15T04:51:19,42.805,6.029,0.027,-0.001,0.06,102.0,105.0,98.0,13.4,1505.3,325.8,-0.8,1.9,2470.11,13.33,0.027,92.1
2019-08-15T04:54:20,42.805,6.029,0.031,0.005,-0.003,102.0,103.0,101.0,13.4,1505.3,326.7,-0.7,1.8,2470.108,13.33,0.031,80.8
2019-08-15T04:57:21,42.805,6.029,0.01,-0.01,0.008,101.0,105.0,99.0,13.4,1505.3,325.6,-0.7,1.8,2470.108,13.33,0.014,135.0
2019-08-15T05:00:22,42.805,6.029,0.016,0.0,-0.017,101.0,105.0,100.0,13.4,1505.3,322.8,-0.7,1.9,2470.07,13.33,0.016,90.0
2019-08-15T05:03:23,42.805,6.029,-0.005,0.002,-0.023,102.0,102.0,99.0,13.4,1505.3,328.2,-0.7,1.8,2470.098,13.33,0.005,291.8
2019-08-15T05:06:24,42.805,6.029,0.018,-0.02,-0.036,103.0,104.0,99.0,13.4,1505.3,323.4,-0.7,1.8,2470.065,13.33,0.026,138.0
2019-08-15T05:09:25,42.805,6.029,0.053,0.005,0.0,103.0,105.0,97.0,13.4,1505.3,326.2,-0.7,1.8,2470.071,13.33,0.053,84.6
2019-08-15T05:12:26,42.805,6.029,0.02,-0.017,-0.011,104.0,106.0,99.0,13.3,1505.3,325.0,-0.7,1.8,2470.081,13.33,0.026,130.4
2019-08-15T05:15:27,42.805,6.029,-0.013,-0.018,-0.011,102.0,104.0,99.0,13.4,1505.3,326.0,-0.7,1.9,2470.061,13.33,0.022,215.8
2019-08-15T05:18:28,42.805,6.029,-0.007,0.008,-0.046,102.0,106.0,99.0,13.3,1505.3,325.0,-0.7,1.8,2470.089,13.33,0.01,318.8
2019-08-15T05:21:29,42.805,6.029,-0.016,-0.014,-0.042,103.0,106.0,99.0,13.4,1505.3,324.4,-0.7,1.9,2470.096,13.33,0.021,228.8
2019-08-15T05:24:30,42.805,6.029,-0.035,-0.015,-0.021,102.0,106.0,100.0,13.4,1505.3,323.4,-0.7,1.8,2470.104,13.33,0.038,246.8
2019-08-15T05:27:31,42.805,6.029,0.002,-0.007,-0.012,104.0,106.0,100.0,13.4,1505.3,326.5,-0.7,1.8,2470.05,13.33,0.007,164.1
2019-08-15T05:30:32,42.805,6.029,0.0,0.002,-0.077,103.0,106.0,99.0,13.3,1505.3,325.9,-0.7,1.9,2470.102,13.33,0.002,0.0
2019-08-15T05:33:33,42.805,6.029,-0.012,-0.002,-0.029,101.0,107.0,99.0,13.4,1505.3,326.7,-0.7,1.8,2470.14,13.33,0.012,260.5
2019-08-15T05:36:34,42.805,6.029,-0.017,0.002,-0.025,102.0,106.0,99.0,13.4,1505.3,327.8,-0.7,1.8,2470.107,13.33,0.017,276.7
2019-08-15T05:39:35,42.805,6.029,-0.029,0.003,-0.023,102.0,106.0,98.0,13.3,1505.3,327.2,-0.7,1.8,2470.105,13.33,0.029,275.9
2019-08-15T05:42:36,42.805,6.029,-0.025,0.002,-0.06,103.0,105.0,98.0,13.4,1505.3,327.9,-0.7,1.8,2470.11,13.33,0.025,274.6
2019-08-15T05:45:37,42.805,6.029,-0.022,-0.008,-0.029,103.0,106.0,100.0,13.4,1505.3,326.3,-0.7,1.8,2470.119,13.33,0.023,250.0
2019-08-15T05:48:38,42.805,6.029,-0.045,-0.005,-0.063,102.0,105.0,99.0,13.3,1505.3,327.4,-0.7,1.9,2470.132,13.33,0.045,263.7
2019-08-15T05:51:39,42.805,6.029,0.005,0.002,-0.021,103.0,106.0,98.0,13.4,1505.3,326.8,-0.7,1.8,2470.144,13.33,0.005,68.2
2019-08-15T05:54:40,42.805,6.029,-0.023,0.004,-0.037,102.0,106.0,99.0,13.4,1505.3,327.7,-0.7,1.8,2470.069,13.33,0.023,279.9
2019-08-15T05:57:41,42.805,6.029,-0.042,-0.018,-0.072,103.0,105.0,98.0,13.4,1505.3,324.2,-0.7,1.8,2470.117,13.33,0.045,246.8
2019-08-15T06:00:42,42.805,6.029,-0.018,-0.02,-0.046,101.0,107.0,98.0,13.3,1505.3,324.6,-0.7,1.8,2470.153,13.33,0.026,222.0
2019-08-15T06:03:43,42.805,6.029,-0.069,-0.016,-0.08,100.0,106.0,100.0,13.3,1505.3,324.1,-0.7,1.8,2470.082,13.33,0.07,256.9
2019-08-15T06:06:44,42.805,6.029,-0.03,-0.009,-0.046,102.0,106.0,99.0,13.3,1505.3,326.6,-0.8,1.8,2470.127,13.33,0.031,253.3
2019-08-15T06:09:45,42.805,6.029,-0.018,0.009,-0.057,103.0,107.0,99.0,13.3,1505.3,322.9,-0.7,1.8,2470.1,13.33,0.02,296.6
2019-08-15T06:12:46,42.805,6.029,-0.002,-0.027,-0.027,103.0,107.0,97.0,13.3,1505.3,326.6,-0.7,1.8,2470.182,13.33,0.027,184.2
2019-08-15T06:15:47,42.805,6.029,0.0,0.004,-0.002,104.0,105.0,99.0,13.4,1505.3,325.4,-0.7,1.8,2470.114,13.33,0.004,0.0
2019-08-15T06:18:48,42.805,6.029,-0.012,0.009,-0.009,101.0,106.0,100.0,13.4,1505.3,325.8,-0.7,1.8,2470.154,13.33,0.015,306.9
2019-08-15T06:21:49,42.805,6.029,0.018,-0.017,-0.004,103.0,105.0,100.0,13.4,1505.3,324.9,-0.7,1.8,2470.158,13.33,0.024,133.4
2019-08-15T06:24:50,42.805,6.029,0.002,-0.022,-0.018,101.0,106.0,99.0,13.4,1505.3,326.6,-0.7,1.8,2470.122,13.33,0.022,174.8
2019-08-15T06:27:51,42.805,6.029,0.011,0.005,0.0,102.0,108.0,100.0,13.3,1505.3,325.1,-0.7,1.8,2470.165,13.33,0.012,65.6
2019-08-15T06:30:52,42.805,6.029,-0.009,-0.007,0.004,104.0,104.0,98.0,13.3,1505.3,327.6,-0.7,1.8,2470.122,13.33,0.011,232.1
2019-08-15T06:33:53,42.805,6.029,0.033,0.001,0.009,101.0,105.0,99.0,13.4,1505.3,322.8,-0.7,1.8,2470.094,13.33,0.033,88.3
2019-08-15T06:36:54,42.805,6.029,0.039,0.0,0.028,103.0,107.0,98.0,13.3,1505.3,327.2,-0.7,1.9,2470.135,13.33,0.039,90.0
2019-08-15T06:39:55,42.805,6.029,0.019,0.011,-0.003,103.0,105.0,99.0,13.4,1505.3,324.9,-0.7,1.8,2470.149,13.33,0.021,59.9
2019-08-15T06:42:56,42.805,6.029,-0.023,-0.006,-0.04,101.0,104.0,100.0,13.3,1505.3,325.6,-0.7,1.9,2470.087,13.33,0.023,255.4
2019-08-15T06:45:57,42.805,6.029,0.013,-0.001,-0.018,104.0,106.0,98.0,13.4,1505.3,327.0,-0.7,1.9,2470.153,13.33,0.013,94.4
2019-08-15T06:48:58,42.805,6.029,-0.019,-0.01,-0.005,103.0,106.0,100.0,13.4,1505.3,323.4,-0.7,1.8,2470.101,13.33,0.021,242.2
2019-08-15T06:51:59,42.805,6.029,0.009,0.012,-0.016,103.0,107.0,99.0,13.4,1505.3,326.6,-0.7,1.9,2470.145,13.33,0.015,36.9
2019-08-15T06:55:00,42.805,6.029,0.008,0.005,0.012,103.0,107.0,98.0,13.3,1505.3,324.3,-0.7,1.8,2470.126,13.33,0.009,58.0
2019-08-15T06:58:01,42.805,6.029,0.023,0.005,0.028,103.0,106.0,99.0,13.3,1505.3,325.0,-0.7,1.9,2470.111,13.33,0.023,77.7
2019-08-15T07:01:02,42.805,6.029,-0.021,-0.004,-0.037,105.0,106.0,99.0,13.3,1505.3,325.9,-0.7,1.8,2470.117,13.33,0.021,259.2
2019-08-15T07:04:03,42.805,6.029,0.013,-0.013,-0.018,104.0,105.0,99.0,13.3,1505.3,325.6,-0.7,1.8,2470.125,13.33,0.018,135.0
2019-08-15T07:07:04,42.805,6.029,-0.009,-0.004,-0.012,104.0,106.0,100.0,13.3,1505.3,328.4,-0.8,1.8,2470.101,13.33,0.009,246.0
2019-08-15T07:10:05,42.805,6.029,0.023,0.002,0.0,104.0,105.0,100.0,13.4,1505.3,323.5,-0.7,1.9,2470.098,13.33,0.023,85.0
2019-08-15T07:13:06,42.805,6.029,-0.038,-0.013,-0.048,103.0,106.0,99.0,13.4,1505.3,325.9,-0.7,1.9,2470.13,13.33,0.04,251.1
2019-08-15T07:16:07,42.805,6.029,-0.006,-0.014,-0.019,103.0,105.0,100.0,13.4,1505.3,325.5,-0.7,1.8,2470.076,13.33,0.015,203.2
2019-08-15T07:19:08,42.805,6.029,0.004,-0.025,-0.034,102.0,106.0,102.0,13.3,1505.3,325.4,-0.7,1.8,2470.148,13.33,0.025,170.9
2019-08-15T07:22:09,42.805,6.029,-0.047,-0.001,-0.044,103.0,105.0,100.0,13.4,1505.3,327.3,-0.7,1.9,2470.095,13.33,0.047,268.8
2019-08-15T07:25:10,42.805,6.029,-0.022,-0.023,-0.007,104.0,104.0,100.0,13.4,1505.3,323.2,-0.7,1.8,2470.12,13.33,0.031,223.7
2019-08-15T07:28:11,42.805,6.029,0.023,-0.016,0.004,102.0,105.0,98.0,13.4,1505.3,325.7,-0.7,1.8,2470.11,13.33,0.028,124.8
2019-08-15T07:31:12,42.805,6.029,0.041,0.015,0.028,102.0,105.0,100.0,13.4,1505.3,325.5,-0.7,1.8,2470.118,13.33,0.043,69.9
2019-08-15T07:34:13,42.805,6.029,0.027,-0.001,0.012,103.0,105.0,100.0,13.4,1505.3,327.3,-0.7,1.8,2470.098,13.33,0.027,92.1
2019-08-15T07:37:14,42.805,6.029,-0.075,0.0,-0.05,103.0,105.0,100.0,13.4,1505.3,324.9,-0.7,1.8,2470.102,13.33,0.074,270.0
2019-08-15T07:40:15,42.805,6.029,0.005,-0.011,0.009,103.0,106.0,100.0,13.4,1505.3,325.4,-0.7,1.8,2470.098,13.33,0.012,155.6
2019-08-15T07:43:16,42.805,6.029,-0.011,0.012,-0.018,104.0,104.0,99.0,13.4,1505.3,325.3,-0.7,1.8,2470.108,13.33,0.016,317.5
2019-08-15T07:46:17,42.805,6.029,-0.033,-0.016,-0.033,103.0,105.0,99.0,13.3,1505.3,327.5,-0.7,1.8,2470.144,13.33,0.036,244.1
2019-08-15T07:49:18,42.805,6.029,-0.027,-0.014,-0.095,103.0,104.0,101.0,13.3,1505.3,323.2,-0.7,1.8,2470.094,13.33,0.03,242.6
2019-08-15T07:52:19,42.805,6.029,0.001,-0.012,-0.005,103.0,105.0,100.0,13.3,1505.3,324.4,-0.7,1.9,2470.112,13.33,0.012,175.2
2019-08-15T07:55:20,42.805,6.029,-0.011,0.004,-0.017,104.0,105.0,98.0,13.4,1505.3,325.7,-0.7,1.8,2470.117,13.33,0.011,290.0
2019-08-15T07:58:21,42.805,6.029,-0.006,-0.003,0.008,102.0,107.0,99.0,13.4,1505.3,325.4,-0.7,1.9,2470.143,13.33,0.006,243.4
2019-08-15T08:01:22,42.805,6.029,-0.014,-0.011,-0.046,103.0,106.0,98.0,13.3,1505.3,326.0,-0.7,1.8,2470.124,13.33,0.017,231.8
2019-08-15T08:04:23,42.805,6.029,-0.022,-0.008,-0.023,103.0,104.0,98.0,13.3,1505.3,326.5,-0.7,1.9,2470.128,13.33,0.023,250.0
2019-08-15T08:07:24,42.805,6.029,-0.029,-0.019,-0.043,103.0,105.0,100.0,13.4,1505.3,323.7,-0.7,1.8,2470.143,13.33,0.034,236.8
2019-08-15T08:10:25,42.805,6.029,-0.001,-0.007,-0.008,103.0,104.0,100.0,13.4,1505.3,327.3,-0.7,1.8,2470.107,13.33,0.007,188.1
2019-08-15T08:13:26,42.805,6.029,-0.001,-0.004,-0.012,103.0,105.0,98.0,13.4,1505.3,323.8,-0.7,1.8,2470.13,13.33,0.004,194.0
2019-08-15T08:16:27,42.805,6.029,-0.023,0.0,-0.027,102.0,105.0,99.0,13.4,1505.3,326.2,-0.7,1.9,2470.094,13.33,0.023,270.0
2019-08-15T08:19:28,42.805,6.029,0.015,-0.006,0.02,103.0,105.0,101.0,13.3,1505.3,323.8,-0.7,1.8,2470.12,13.33,0.016,111.8
2019-08-15T08:22:29,42.805,6.029,-0.002,-0.018,-0.003,103.0,106.0,99.0,13.4,1505.3,323.9,-0.7,1.8,2470.111,13.33,0.018,186.3
2019-08-15T08:25:30,42.805,6.029,0.027,-0.014,0.001,102.0,106.0,99.0,13.4,1505.3,323.4,-0.7,1.9,2470.119,13.33,0.03,117.4
2019-08-15T08:28:31,42.805,6.029,0.001,-0.018,-0.029,103.0,105.0,98.0,13.4,1505.3,325.0,-0.7,1.8,2470.096,13.33,0.018,176.8
2019-08-15T08:31:32,42.805,6.029,-0.034,-0.003,-0.034,105.0,105.0,98.0,13.4,1505.3,327.7,-0.7,1.8,2470.113,13.33,0.034,265.0
2019-08-15T08:34:33,42.805,6.029,0.011,-0.021,0.002,103.0,105.0,100.0,13.4,1505.3,323.4,-0.7,1.8,2470.089,13.33,0.023,152.4
2019-08-15T08:37:34,42.805,6.029,0.002,-0.032,-0.029,102.0,104.0,100.0,13.4,1505.3,324.7,-0.7,1.8,2470.048,13.33,0.032,176.4
2019-08-15T08:40:35,42.805,6.029,-0.01,-0.015,-0.026,103.0,104.0,100.0,13.4,1505.3,324.2,-0.7,1.8,2470.037,13.33,0.018,213.7
2019-08-15T08:43:36,42.805,6.029,-0.016,0.0,-0.004,102.0,105.0,101.0,13.3,1505.3,324.3,-0.7,1.8,2470.093,13.33,0.016,270.0
2019-08-15T08:46:37,42.805,6.029,-0.021,-0.008,-0.032,104.0,105.0,99.0,13.4,1505.3,327.8,-0.7,1.8,2470.059,13.33,0.022,249.1
2019-08-15T08:49:38,42.805,6.029,0.004,-0.031,-0.019,103.0,106.0,100.0,13.3,1505.3,324.4,-0.7,1.8,2470.111,13.33,0.031,172.7
2019-08-15T08:52:39,42.805,6.029,-0.008,0.004,-0.033,103.0,104.0,99.0,13.4,1505.3,322.9,-0.7,1.8,2470.072,13.33,0.008,296.6
2019-08-15T08:55:40,42.805,6.029,-0.021,-0.016,-0.047,102.0,106.0,100.0,13.4,1505.3,323.4,-0.7,1.8,2470.105,13.33,0.026,232.7
2019-08-15T08:58:41,42.805,6.029,-0.016,-0.018,-0.019,104.0,106.0,99.0,13.4,1505.3,326.1,-0.7,1.8,2470.164,13.33,0.024,221.6
2019-08-15T09:01:42,42.805,6.029,-0.03,-0.004,-0.042,103.0,105.0,99.0,13.3,1505.3,325.3,-0.7,1.8,2470.064,13.33,0.03,262.4
2019-08-15T09:04:43,42.805,6.029,-0.029,0.001,-0.041,103.0,105.0,102.0,13.4,1505.3,326.8,-0.7,1.9,2470.03,13.33,0.029,272.0
2019-08-15T09:07:44,42.805,6.029,0.015,-0.015,-0.01,102.0,104.0,99.0,13.3,1505.3,327.8,-0.7,1.8,2470.064,13.33,0.021,135.0
2019-08-15T09:10:45,42.805,6.029,-0.012,0.001,0.01,103.0,106.0,98.0,13.3,1505.3,327.6,-0.7,1.8,2470.059,13.33,0.012,274.8
2019-08-15T09:13:46,42.805,6.029,-0.025,-0.015,-0.031,102.0,104.0,98.0,13.4,1505.3,328.3,-0.7,1.8,2470.07,13.33,0.029,239.0
2019-08-15T09:16:47,42.805,6.029,-0.026,-0.021,-0.036,101.0,105.0,99.0,13.3,1505.3,324.7,-0.7,1.9,2470.079,13.33,0.033,231.1
2019-08-15T09:19:48,42.805,6.029,-0.009,-0.012,-0.024,103.0,105.0,98.0,13.3,1505.3,322.9,-0.7,1.8,2470.084,13.33,0.015,216.9
2019-08-15T09:22:49,42.805,6.029,-0.019,-0.003,-0.031,101.0,106.0,99.0,13.4,1505.3,324.1,-0.7,1.9,2470.077,13.33,0.019,261.0
2019-08-15T09:25:50,42.805,6.029,0.004,-0.013,-0.003,104.0,106.0,99.0,13.4,1505.3,324.1,-0.7,1.8,2470.073,13.33,0.013,162.9
2019-08-15T09:28:51,42.805,6.029,-0.004,-0.015,-0.021,102.0,105.0,99.0,13.3,1505.3,327.6,-0.7,1.9,2470.078,13.33,0.015,194.9
2019-08-15T09:31:52,42.805,6.029,-0.065,-0.02,-0.05,103.0,105.0,99.0,13.3,1505.3,324.7,-0.7,1.8,2470.079,13.33,0.068,252.9